Content
SEND FEEDBACK

Daily
Averages
Monthly
Summary
United States of America

HILLSIDE, NEW JERSEY


Home > North America > United States > New Jersey
Elevation: 40 feet     Latitude: 40 40N     Longitude: 074 14W

WEATHER
 
SELECT A DAY
Number of Records: 192,417;   Date Range: 1/1/95 - 10/22/14
 
SHARE

PRINT THIS DATA

[ ← Previous Day ]
WEATHER ALMANAC - MARCH 3, 2013
[ Next Day → ]
[ °C ]   °F
Weather ElementAverageHighLow
Temperature33.4 °F39.9 °F (2:51 pm)28.9 °F (11:51 pm)
Dewpoint17.3 °F19.9 °F (1:51 am)15.1 °F (10:51 pm)
Humidity52.1 %64 % (1:51 am)41 % (1:51 pm)
Barometer29.73 in29.78 in (10:51 pm)29.68 in (1:51 pm)
Wind Speed14.7 mph19.6 mph (5:51 pm)
Wind Gust28.8 mph (4:51 pm)
Weather ElementAverage
Visibility10 mi
Wind DirectionNW (311.3 °)

Weather ElementTotal
Precipitation---
Heating Degree Days30.6 (Base 65)
Averaged from 23 records on March 3, 2013
WEATHER CONDITIONS BREAKOUT
WIND DIRECTION BREAKOUT
WEATHER BY HOUR - MARCH 3, 2013
[ °C ]   °F
Local TimeTemperatureDewpointHumidityBarometerVisibilityWind DirectionWind SpeedGust SpeedPrecipitationEventsConditions
1:51 AM30.9 °F19.9 °F64 %29.75 in10.0 miNW (310°)12.7 mph0.00 inSnowLight Snow
2:51 AM30.9 °F19.0 °F61 %29.73 in10.0 miNW (320°)12.7 mph0.00 inSnowLight Snow
3:51 AM30.9 °F18.0 °F59 %29.73 in10.0 miNW (320°)13.8 mph19.6 mph0.00 inSnowLight Snow
4:51 AM30.9 °F17.1 °F57 %29.74 in10.0 miNW (320°)13.8 mph0.00 inOvercast
5:51 AM30.0 °F17.1 °F59 %29.74 in10.0 miNW (320°)9.2 mphOvercast
6:51 AM30.0 °F17.1 °F59 %29.75 in10.0 miNNW (340°)12.7 mphMostly Cloudy
7:51 AM30.0 °F17.1 °F59 %29.75 in10.0 miNW (320°)16.1 mph20.7 mphMostly Cloudy
8:51 AM32.0 °F17.6 °F55 %29.75 in10.0 miNW (310°)13.8 mphMostly Cloudy
9:51 AM33.1 °F18.0 °F54 %29.74 in10.0 miNNW (330°)9.2 mphMostly Cloudy
10:51 AM34.0 °F17.1 °F50 %29.74 in10.0 miNW (320°)16.1 mphMostly Cloudy
11:51 AM36.0 °F17.1 °F46 %29.73 in10.0 miWNW (290°)17.3 mph23.0 mphMostly Cloudy
12:51 PM37.9 °F17.1 °F43 %29.70 in10.0 miNW (320°)13.8 mphMostly Cloudy
1:51 PM39.0 °F17.1 °F41 %29.68 in10.0 miWNW (290°)9.2 mph23.0 mphMostly Cloudy
2:51 PM39.9 °F18.0 °F41 %29.68 in10.0 miWNW (290°)16.1 mph23.0 mphMostly Cloudy
3:51 PM39.2 °F17.6 °F42 %29.68 in10.0 miWNW (290°)17.3 mph26.5 mphMostly Cloudy
4:51 PM37.4 °F17.6 °F45 %29.69 in10.0 miNW (320°)17.3 mph28.8 mphMostly Cloudy
5:51 PM36.0 °F17.1 °F46 %29.70 in10.0 miWNW (300°)19.6 mph25.3 mphMostly Cloudy
6:51 PM35.1 °F18.0 °F50 %29.73 in10.0 miWNW (290°)16.1 mph23.0 mphMostly Cloudy
7:51 PM33.1 °F17.1 °F52 %29.75 in10.0 miNW (310°)13.8 mph23.0 mphPartly Cloudy
8:51 PM32.0 °F16.0 °F52 %29.76 in10.0 miNW (320°)18.4 mph23.0 mphPartly Cloudy
9:51 PM30.9 °F16.0 °F54 %29.77 in10.0 miWNW (300°)18.4 mph26.5 mphPartly Cloudy
10:51 PM30.0 °F15.1 °F54 %29.78 in10.0 miNW (310°)17.3 mph23.0 mphPartly Cloudy
11:51 PM28.9 °F15.1 °F56 %29.78 in10.0 miNW (320°)12.7 mph21.9 mphPartly Cloudy
Hourly data recorded from KEWR, located miles away from Hillside, New Jersey







STORIES FROM OUR PARTNERS